GW2969 Weather Reports


time (UTC)temp
C
wind
direction
speed
KPH
gust
KPH
rain 1hr
cm
rain 24hr
cm
rain mn
cm
humidity
%
barometer
mb
20260503200039 16 154 0.0 8.0 0.00 0.00 0.00 73 1013.2
20260503195526 16 146 1.6 4.8 0.00 0.00 0.00 72 1013.2
20260503195025 16 134 0.0 8.0 0.00 0.00 0.00 74 1013.1
20260503194543 16 0 1.6 8.0 0.00 0.00 0.00 74 1013.3
20260503194028 16 146 0.0 8.0 0.00 0.00 0.00 76 1013.3
20260503193525 15 138 0.0 8.0 0.00 0.00 0.00 76 1013.3
20260503193047 15 142 3.2 8.0 0.00 0.00 0.00 75 1013.2
20260503192525 15 143 0.0 4.8 0.00 0.00 0.00 77 1013.3
20260503192025 15 0 0.0 6.4 0.00 0.00 0.00 77 1013.2
20260503191541 15 0 1.6 6.4 0.00 0.00 0.00 74 1013.4
20260503191026 15 0 0.0 4.8 0.00 0.00 0.00 74 1013.3
20260503190526 15 0 0.0 4.8 0.00 0.00 0.00 75 1013.2
20260503190039 15 0 0.0 4.8 0.00 0.00 0.00 75 1013.3
20260503185525 15 0 0.0 4.8 0.00 0.00 0.00 73 1013.2
20260503185025 15 0 0.0 4.8 0.00 0.00 0.00 74 1013.2
20260503184550 16 110 0.0 4.8 0.00 0.00 0.00 74 1013.2
20260503184025 16 137 0.0 4.8 0.00 0.00 0.00 74 1013.2
20260503183526 15 131 0.0 4.8 0.00 0.00 0.00 76 1013.1
20260503183057 15 0 0.0 4.8 0.00 0.00 0.00 77 1013.2
20260503182525 15 0 0.0 6.4 0.00 0.00 0.00 75 1013.1
20260503182025 15 0 0.0 6.4 0.00 0.00 0.00 78 1013.0
20260503181536 14 141 1.6 6.4 0.00 0.00 0.00 78 1013.0
20260503181025 14 133 1.6 8.0 0.00 0.00 0.00 78 1013.0
20260503180525 14 138 1.6 8.0 0.00 0.00 0.00 79 1013.0
20260503180042 14 121 0.0 6.4 0.00 0.00 0.00 80 1013.1
20260503175524 14 95 0.0 6.4 0.00 0.00 0.00 80 1013.0
20260503175025 14 135 1.6 9.7 0.00 0.00 0.00 79 1013.0
20260503174539 14 0 0.0 9.7 0.00 0.00 0.00 79 1013.0
20260503174026 14 145 1.6 9.7 0.00 0.00 0.00 80 1013.0
20260503173526 14 0 0.0 6.4 0.00 0.00 0.00 81 1013.0
20260503173105 13 0 0.0 6.4 0.00 0.00 0.00 82 1013.0
20260503172531 13 0 0.0 6.4 0.00 0.00 0.00 82 1013.1
20260503172025 13 138 1.6 9.7 0.00 0.00 0.00 83 1013.0
20260503171541 13 0 1.6 9.7 0.00 0.00 0.00 83 1013.0
20260503171025 13 0 0.0 9.7 0.00 0.00 0.00 83 1013.1
20260503170525 13 137 1.6 8.0 0.00 0.00 0.00 83 1013.0
20260503150525 12 117 0.0 1.6 0.00 0.00 0.00 89 1012.4
20260503131025 11 117 1.6 6.4 0.00 0.00 0.00 87 1011.0
20260503130525 11 0 0.0 4.8 0.00 0.00 0.00 86 1010.8
20260503110525 10 0 0.0 1.6 0.00 0.00 0.00 90 1011.0
20260503081541 11 0 0.0 0.0 0.00 0.00 0.00 88 1011.8
20260503081025 11 0 0.0 0.0 0.00 0.00 0.00 89 1011.8
20260503080525 11 0 0.0 0.0 0.00 0.00 0.00 89 1011.8
20260503072526 11 0 0.0 0.0 0.00 0.00 0.00 89 1011.7
20260503072026 11 0 0.0 0.0 0.00 0.00 0.00 89 1011.8
20260503071542 11 0 0.0 0.0 0.00 0.00 0.00 89 1011.7
20260503071026 11 0 0.0 1.6 0.00 0.00 0.00 89 1011.7
20260503070525 11 0 0.0 1.6 0.00 0.00 0.00 89 1011.7
20260503055025 11 0 0.0 0.0 0.00 0.00 0.00 88 1012.1
20260503054539 11 0 0.0 0.0 0.00 0.00 0.00 88 1012.2
20260503054028 11 0 0.0 0.0 0.00 0.00 0.00 88 1012.1
20260503053529 11 0 0.0 0.0 0.00 0.00 0.00 88 1012.1
20260503053040 11 0 0.0 1.6 0.00 0.00 0.00 87 1012.2
20260503052531 11 0 0.0 1.6 0.00 0.00 0.00 87 1012.1
20260503052026 11 0 0.0 1.6 0.00 0.00 0.00 87 1012.2
20260503051536 11 0 0.0 0.0 0.00 0.00 0.00 87 1012.1
20260503051026 11 0 0.0 0.0 0.00 0.00 0.00 87 1012.2
20260503050526 11 0 0.0 1.6 0.00 0.00 0.00 87 1012.2
20260503050041 11 0 0.0 1.6 0.00 0.00 0.00 86 1012.2
20260503045526 11 0 0.0 1.6 0.00 0.00 0.00 86 1012.2
20260503045026 11 0 0.0 1.6 0.00 0.00 0.00 86 1012.2
20260503044539 11 0 0.0 1.6 0.00 0.00 0.00 87 1012.2
20260503044025 11 0 0.0 0.0 0.00 0.00 0.00 87 1012.1
20260503043525 11 0 0.0 0.0 0.00 0.00 0.00 87 1012.1
20260503043042 11 0 0.0 1.6 0.00 0.00 0.00 87 1012.2
20260503042525 11 0 0.0 1.6 0.00 0.00 0.00 87 1012.1
20260503042025 11 0 0.0 0.0 0.00 0.00 0.00 87 1012.0
20260503041538 11 0 0.0 0.0 0.00 0.00 0.00 87 1012.0
20260503041026 11 0 0.0 0.0 0.00 0.00 0.00 87 1012.0
20260503040527 11 0 0.0 0.0 0.00 0.00 0.00 87 1011.9
20260503040046 11 0 0.0 0.0 0.00 0.00 0.00 87 1011.9
20260503035525 11 0 0.0 0.0 0.00 0.00 0.00 87 1011.9
20260503035026 11 0 0.0 0.0 0.00 0.00 0.00 87 1011.8
20260503034558 11 0 0.0 0.0 0.00 0.00 0.00 87 1011.7
20260503034025 11 0 0.0 1.6 0.00 0.00 0.00 87 1011.6
20260503033525 11 0 0.0 1.6 0.00 0.00 0.00 86 1011.6
20260503033043 11 0 0.0 1.6 0.00 0.00 0.00 86 1011.5
20260503032526 11 0 0.0 1.6 0.00 0.00 0.00 86 1011.4
20260503032026 11 0 0.0 1.6 0.00 0.00 0.00 86 1011.4
20260503031542 11 0 0.0 1.6 0.00 0.00 0.00 86 1011.3
20260503031026 11 0 0.0 1.6 0.00 0.00 0.00 86 1011.2
20260503030525 11 0 0.0 3.2 0.00 0.00 0.00 86 1011.3
20260503030050 12 0 0.0 3.2 0.00 0.00 0.00 86 1011.1
20260503025526 12 0 0.0 1.6 0.00 0.00 0.00 87 1011.1
20260503025025 12 0 0.0 3.2 0.00 0.00 0.00 87 1011.1
20260503024538 12 0 0.0 3.2 0.00 0.00 0.00 87 1011.2
20260503024025 12 124 0.0 3.2 0.00 0.00 0.00 87 1011.2
20260503023526 12 0 0.0 4.8 0.00 0.00 0.00 87 1011.1
20260503023040 12 149 0.0 4.8 0.00 0.00 0.00 87 1011.1
20260503022525 12 139 0.0 8.0 0.00 0.00 0.00 86 1011.1
20260503022026 12 141 0.0 8.0 0.00 0.00 0.00 86 1011.1
20260503021544 12 131 0.0 4.8 0.00 0.00 0.00 85 1011.1
20260503021026 12 124 0.0 11.3 0.00 0.00 0.00 85 1011.2
20260503020528 12 142 1.6 11.3 0.00 0.00 0.00 84 1011.1
20260503020042 12 134 0.0 1.6 0.00 0.00 0.00 84 1011.2
20260503015525 13 0 0.0 4.8 0.00 0.00 0.00 83 1011.3
20260503015025 13 133 0.0 6.4 0.00 0.00 0.00 83 1011.2
20260503014545 13 122 0.0 6.4 0.00 0.00 0.00 83 1011.3
20260503014025 13 136 0.0 6.4 0.00 0.00 0.00 83 1011.3
20260503013526 13 132 0.0 9.7 0.00 0.00 0.00 82 1011.4
20260503013038 13 121 1.6 9.7 0.00 0.00 0.00 81 1011.3
20260503012527 13 143 1.6 6.4 0.00 0.00 0.00 81 1011.4
20260503012026 13 102 1.6 6.4 0.00 0.00 0.00 81 1011.4
20260503011538 14 139 1.6 6.4 0.00 0.00 0.00 80 1011.4
20260503011025 14 146 1.6 9.7 0.00 0.00 0.00 80 1011.4
20260503010525 13 0 3.2 9.7 0.00 0.00 0.00 80 1011.4
20260503010041 14 145 1.6 12.9 0.00 0.00 0.00 80 1011.4
20260503005525 14 107 1.6 12.9 0.00 0.00 0.00 80 1011.4
20260503005027 14 0 1.6 12.9 0.00 0.00 0.00 79 1011.5
20260503004603 14 129 3.2 12.9 0.00 0.00 0.00 78 1011.5
20260503004029 14 134 3.2 12.9 0.00 0.00 0.00 78 1011.5
20260503003526 15 123 3.2 11.3 0.00 0.00 0.00 78 1011.5
20260503003039 15 120 1.6 9.7 0.00 0.00 0.00 78 1011.5
20260503002526 14 136 1.6 12.9 0.00 0.00 0.00 78 1011.5
20260503002029 14 131 3.2 12.9 0.00 0.00 0.00 78 1011.6
20260503001538 14 124 1.6 12.9 0.00 0.00 0.00 79 1011.5
20260503001026 15 156 3.2 12.9 0.00 0.00 0.00 77 1011.5
20260503000525 15 0 1.6 12.9 0.00 0.00 0.00 77 1011.5
20260503000040 15 102 3.2 12.9 0.00 0.00 0.00 76 1011.7
20260502235525 15 106 3.2 11.3 0.00 0.00 0.00 76 1011.6
20260502235026 15 105 1.6 11.3 0.00 0.00 0.00 77 1011.6
20260502234538 15 0 1.6 9.7 0.00 0.00 0.00 77 1011.7
20260502234025 15 150 3.2 14.5 0.00 0.00 0.00 74 1011.7
20260502233528 15 131 3.2 14.5 0.00 0.00 0.00 75 1011.7
20260502233042 15 102 3.2 11.3 0.00 0.00 0.00 75 1011.7
20260502232525 15 147 1.6 11.3 0.00 0.00 0.00 77 1011.8
20260502232025 15 125 1.6 11.3 0.00 0.00 0.00 78 1011.8
20260502231536 15 120 3.2 16.1 0.00 0.00 0.00 76 1011.9
20260502231029 15 110 1.6 16.1 0.00 0.00 0.00 76 1011.9
20260502230525 15 0 3.2 11.3 0.00 0.00 0.00 75 1012.0
20260502230041 16 141 1.6 12.9 0.00 0.00 0.00 74 1012.1
20260502225525 16 123 1.6 14.5 0.00 0.00 0.00 74 1012.2
20260502225025 16 150 3.2 14.5 0.00 0.00 0.00 73 1012.2
20260502224541 16 143 4.8 14.5 0.00 0.00 0.00 73 1012.3
20260502224028 16 102 3.2 14.5 0.00 0.00 0.00 72 1012.3
20260502223527 16 129 1.6 12.9 0.00 0.00 0.00 74 1012.5
20260502223038 16 0 3.2 12.9 0.00 0.00 0.00 73 1012.5
20260502222526 16 105 1.6 11.3 0.00 0.00 0.00 75 1012.5
20260502222028 16 143 3.2 9.7 0.00 0.00 0.00 74 1012.7
20260502221537 16 149 1.6 6.4 0.00 0.00 0.00 75 1012.7
20260502221026 16 144 1.6 9.7 0.00 0.00 0.00 75 1012.8
20260502220526 16 135 1.6 11.3 0.00 0.00 0.00 75 1012.8
20260502220043 16 145 1.6 11.3 0.00 0.00 0.00 75 1012.7
20260502215525 16 122 3.2 11.3 0.00 0.00 0.00 75 1012.7
20260502215024 16 139 3.2 11.3 0.00 0.00 0.00 77 1012.7
20260502214540 16 146 3.2 12.9 0.00 0.00 0.00 76 1012.7
20260502214027 16 121 3.2 12.9 0.00 0.00 0.00 76 1012.8
20260502213528 16 178 3.2 11.3 0.00 0.00 0.00 74 1012.9
20260502213039 16 99 1.6 6.4 0.00 0.00 0.00 75 1012.8
20260502212529 16 143 0.0 8.0 0.00 0.00 0.00 76 1012.7
20260502212025 15 130 3.2 8.0 0.00 0.00 0.00 76 1012.7
20260502211546 15 141 1.6 8.0 0.00 0.00 0.00 76 1012.9
20260502211025 15 137 3.2 12.9 0.00 0.00 0.00 77 1012.9
20260502210525 15 172 1.6 12.9 0.00 0.00 0.00 77 1013.0
20260502210038 15 143 3.2 12.9 0.00 0.00 0.00 78 1013.2
20260502205525 15 139 3.2 14.5 0.00 0.00 0.00 79 1013.3
20260502205025 15 162 1.6 14.5 0.00 0.00 0.00 80 1013.3
20260502204538 14 128 3.2 11.3 0.00 0.00 0.00 80 1013.3
20260502204025 14 146 3.2 11.3 0.00 0.00 0.00 80 1013.2
20260502203524 14 148 1.6 11.3 0.00 0.00 0.00 81 1013.3
20260502203038 14 107 3.2 12.9 0.00 0.00 0.00 81 1013.5
20260502202525 14 0 1.6 12.9 0.00 0.00 0.00 83 1013.3
20260502202027 14 120 3.2 9.7 0.00 0.00 0.00 81 1013.4
20260502201537 14 148 1.6 9.7 0.00 0.00 0.00 82 1013.5
20260502201027 14 103 1.6 9.7 0.00 0.00 0.00 82 1013.6
20260502200529 14 129 1.6 8.0 0.00 0.00 0.00 83 1013.5